User: anonymous   Login
Location: Wallasey
(53.4265°N, 3.0662°W)
Time: 19:56:39
(UTC+01:00)
Language:

UKube-1 - Orbit

View from above orbital plane
View from above orbital plane
View from above satellite
View from above satellite

Ground track
Ground track

The orbit data is extracted from the following two-line orbital elements,

1 40074U 14037F   19229.16472427  .00000101  00000-0  19353-4 0  9993
2 40074  98.4420  34.5156 0005451  44.6524 315.5161 14.84078466276474
Epoch (UTC): 17 August 2019 03:57:12
Eccentricity: 0.0005451
inclination: 98.4420°
perigee height: 612 km
apogee height: 620 km
right ascension of ascending node: 34.5156°
argument of perigee: 44.6524°
revolutions per day: 14.84078466
mean anomaly at epoch: 315.5161°
orbit number at epoch: 27647

The dashed part of the orbit path shows where the satellite is in the earth's shadow,  

DLR